FENGYUN 1C DEB, 30148

Orbit data source: Space-Track

FENGYUN 1C DEB, 30148 is space debris in SSO originally from a launch on Mon, 10 May 1999 UTC launched from the Taiyaun Space Center, China (TSC). Fengyun 1C debris stems from the Chinese weather satellite Fengyun-1C, which was intentionally destroyed by a Chinese anti-satellite missile in 2007. This event dramatically increased the amount of space debris, with thousands of trackable fragments posing hazards to satellites and human spaceflight. The Fengyun 1C debris cloud has become a focal point in discussions about space sustainability and the need for international regulations to prevent the creation of new debris.

Loading next visibility...
Identifier
30148, 1999-025TD
Orbit
SSO
Country
Flag of CNCN / PRC
Related business
Manufacturer
Unknown
Mission
Spacecraft
Bus & Motor
Unknown
Mass
Unknown
Launch date (UTC)
1999-05-10 (27 years ago)
Launch vehicle
Unknown
Launch site
Taiyaun Space Center, China (TSC)
Object type
Payload
Rocket body
Debris
Shape & HBR
Unknown shape, 0.1 m
Radar Cross Section
Small (<0.1 m²)

Expand to show TLE details & history
Last TLE update: 2 days ago

TLE from 2 days ago
0 FENGYUN 1C DEB
1 30148U 99025TD  26252.97046196  .00000627  00000-0  51823-3 0  9997
2 30148  99.5784  54.1723 0134070 193.8375 296.1070 13.88920640992818
Epoch: 2026-09-09T23:17Z
TLE epoch observation values (Epoch: 2026-09-09T23:17:27.913Z)
Latitude
50.5535°
Longitude
-92.43664°
Altitude
898.355 km
Speed
7.429 km/s
True Right ascension
16h 23m 46s
True Declination
50° 23' 17"
Sunlit
Object was in daylight at epoch
Visualization orbit readout
Latitude
Unknown
Longitude
Unknown
Altitude
Unknown
Speed
Unknown
Apparent Right ascension
Unknown
Apparent Declination
Unknown
Sunlit
N/A
Visualization observer readout
Local Sidereal Time
05:39:12
Azimuth
Unknown
Elevation
Unknown
Doppler factor
Unknown
Orbital elements
Apogee altitude
1,027.634 km
Perigee altitude
831.683 km
Semi-major axis
7,307.795 km
Eccentricity
0.01341
Inclination
99.5784°
RAAN
54.1723°
Arg. of periapsis
193.8375°
True anomaly
294.71731°
Mean anomaly
296.107°
Eccentric anomaly
295.41317°
Mean motion
3.47427 °/min
Orbital period
103.62 mins
BSTAR
0.00051823
Loading maneuver chart data...
Computing Atmospheric mass density...
Loading historical data...
Loading historical data...
Loading historical data...
Loading historical data...
Loading historical data...
Loading historical data...
Loading historical data...

Documentation

Showing up to 5 results
|